Flag for Switzerland Weather past 2 weeks in Bern, Bern, Switzerland

Now
54 °F

Sunny.


Feels Like: 54 °F
Forecast: 33 / 55 °F
Wind: 1 mph from North

Location: Bern / Belp


UV Index: 3 (Moderate)

Visibility: 10 mi


Pressure: 30.12 "Hg

Humidity: 44%

Dew point: 32 °F

Location of BernLocation

Historic Weather in Bern

°F

Bern temperature yesterday

Maximum temperature yesterday: 55 °F (at 4:50 PM)
Minimum temperature yesterday: 28 °F (at 5:20 AM)
Average temperature yesterday: 43 °F

Past Weeks' High & Low Weather Summary

 TemperatureHumidityPressure
High72 °F (Apr 7, 5:20 PM)100% (Apr 3, 11:20 PM)30.30 "Hg (Apr 3, 11:20 PM)
Low27 °F (Apr 17, 5:50 AM)22% (Apr 9, 5:20 PM)29.65 "Hg (Apr 3, 4:20 PM)
Average52 °F71%30.04 "Hg
* Reported Apr 2 12:20 PM — Apr 17 12:20 PM, Bern, Weather by CustomWeather, © 2014

Note: Actual official high and low records may vary slightly from our data, if they occured in-between our weather recording intervals... More about our weather records

Advertising

Historic Weather Conditions — Data for Previous 24 hours

 ConditionsComfort  
Time TempWeatherWind HumidityBarometerVisibility
12:20 PM
Apr 17
52 °FSunny.5 mph47%30.12 "Hg10 mi
11:50 AM50 °FSunny.3 mph54%30.15 "Hg10 mi
11:20 AM50 °FSunny.3 mph54%30.15 "Hg10 mi
10:50 AM46 °FSunny.2 mph57%30.15 "Hg10 mi
10:20 AM45 °FSunny.2 mph61%30.18 "Hg10 mi
9:50 AM43 °FSunny.1 mph66%30.15 "Hg10 mi
9:20 AM41 °FSunny.1 mph70%30.18 "Hg10 mi
8:50 AM37 °FSunny.3 mph81%30.18 "Hg10 mi
8:20 AM36 °FSunny.1 mph81%30.18 "Hg10 mi
7:50 AM32 °FSunny.1 mph87%30.18 "Hg10 mi
7:20 AM27 °FClear.No wind100%30.18 "Hg10 mi
6:50 AM27 °FClear.No wind100%30.18 "Hg10 mi
6:20 AM27 °FClear.No wind100%30.18 "Hg10 mi
5:50 AM27 °FClear.No wind100%30.18 "Hg10 mi
5:20 AM28 °FClear.1 mph86%30.18 "Hg10 mi
4:50 AM28 °FClear.2 mph100%30.18 "Hg10 mi
4:20 AM28 °FClear.3 mph93%30.18 "Hg10 mi
3:50 AM30 °FClear.No wind86%30.18 "Hg10 mi
3:20 AM30 °FClear.1 mph86%30.21 "Hg10 mi
2:50 AM30 °FClear.1 mph93%30.21 "Hg10 mi
2:20 AM32 °FClear.2 mph87%30.21 "Hg10 mi
1:50 AM32 °FClear.1 mph87%30.21 "Hg10 mi
1:20 AM34 °FClear.1 mph87%30.21 "Hg10 mi
12:50 AM37 °FClear.1 mph70%30.21 "Hg10 mi
12:20 AM37 °FClear.1 mph70%30.21 "Hg10 mi
11:50 PM
Apr 16
37 °FClear.1 mph75%30.21 "Hg10 mi
11:20 PM37 °FClear.2 mph70%30.24 "Hg10 mi
10:50 PM37 °FClear.2 mph70%30.24 "Hg10 mi
10:20 PM43 °FClear.1 mph57%30.24 "Hg10 mi
9:50 PM46 °FClear.1 mph46%30.24 "Hg10 mi
9:20 PM45 °FPassing clouds.5 mph49%30.24 "HgN/A
8:50 PM48 °FSunny.6 mph43%30.21 "Hg10 mi
8:20 PM48 °FPassing clouds.9 mph46%30.21 "HgN/A
7:50 PM50 °FPassing clouds.9 mph40%30.21 "HgN/A
7:20 PM52 °FPassing clouds.10 mph38%30.21 "HgN/A
6:50 PM52 °FPassing clouds.13 mph41%30.21 "HgN/A
6:20 PM54 °FPassing clouds.13 mph38%30.21 "HgN/A
5:50 PM54 °FPassing clouds.12 mph35%30.21 "HgN/A
5:20 PM54 °FPassing clouds.12 mph38%30.18 "HgN/A
4:50 PM55 °FPassing clouds.9 mph38%30.21 "HgN/A
4:20 PM54 °FPassing clouds.12 mph35%30.21 "HgN/A
3:50 PM54 °FPassing clouds.13 mph38%30.21 "HgN/A
3:20 PM54 °FPassing clouds.12 mph41%30.21 "HgN/A
2:50 PM52 °FPassing clouds.12 mph41%30.21 "HgN/A
2:20 PM52 °FPassing clouds.9 mph38%30.21 "HgN/A
1:50 PM52 °FPassing clouds.9 mph41%30.21 "HgN/A
1:20 PM50 °FPassing clouds.13 mph40%30.21 "HgN/A
Weather by CustomWeather, © 2014

See weather overview